Location: Binningen
(47.7924°N, 8.7261°E)
Time: 07:39:46
(UTC+00:00)

USA 267 - Pass Details

Date: 17 May 2021
Orbit: 1102 x 1106 km, 123.0° (Epoch: 13 June)

Event Time Altitude Azimuth Distance (km) Brightness Sun altitude
Exits shadow 19:30:28 - 152° (SSE) 3,686 5.4 -5.2°
Reaches altitude 10° 19:32:30 10° 158° (SSE) 2,953 5.0 -5.5°
Maximum altitude 19:38:36 41° 228° (SW) 1,541 4.2 -6.3°
Drops below altitude 10° 19:44:45 10° 297° (WNW) 2,969 7.1 -7.1°
Sets 19:47:25 0° 305° (NW) 3,931 8.6 -7.4°
